Regional Weather Roundup
Issued by NWS

Home | Current Version | Previous Version | Text Only | Print | Product List | Glossary Off
Versions: 1 2 3 4 5 6 7 8 9 10 11 12 13 14 15 16 17 18 19 20 21 22 23 24 25 26 27 28 29 30 31 32 33 34 35 36 37 38 39 40 41 42 43 44 45 46 47 48 49 50

000
ASUS45 KBOU 031310
RWRCO

WEATHER ROUNDUP FOR COLORADO
NATIONAL WEATHER SERVICE DENVER/BOULDER CO
700 AM MDT FRI JUL 03 2015

NOTE: "FAIR" INDICATES FEW OR NO CLOUDS BELOW 12000 FEET WITH NO
SIGNIFICANT WEATHER AND/OR OBSTRUCTIONS TO VISIBILITY.

COZ001>005-013-030-031-031400-
...NORTHWEST COLORADO...

CITY           SKY/WX    TMP DP  RH WIND       PRES   REMARKS
CRAIG          SUNNY     60  47  61 NE6       30.21R
HAYDEN         SUNNY     59  43  55 E14       30.22S
MEEKER         SUNNY     58  47  66 CALM      30.21R
MOUNT WERNER   NOT AVBL
STEAMBOAT SPGS SUNNY     54  45  71 CALM      30.26R
WALDEN         SUNNY     50  45  81 SE3       30.36S
$$

COZ006>008-011-031400-
...WEST CENTRAL VALLEYS...

CITY           SKY/WX    TMP DP  RH WIND       PRES   REMARKS
GRAND JUNCTION MOSUNNY   73  47  39 E9        30.06R
MONTROSE       MOSUNNY   66  49  54 W5        30.19R
EAGLE          MOSUNNY   63  48  59 SW5       30.27R
RIFLE          SUNNY     64  46  52 CALM      30.15R
DELTA          MOSUNNY   68  50  52 E5        30.13S
NUCLA          MOSUNNY   64  48  55 SE9       30.22S
$$

COZ017>023-064>068-031400-
...SOUTHWEST COLORADO...

CITY           SKY/WX    TMP DP  RH WIND       PRES   REMARKS
DURANGO        PTSUNNY   55  50  83 CALM      30.26S
CORTEZ         SUNNY     60  53  77 CALM      30.20R
PAGOSA SPRINGS PTSUNNY   55  54  96 CALM      30.35R
TELLURIDE      CLOUDY    55  47  73 SW3       30.45R
WOLF CREEK PAS NOT AVBL
$$

COZ009-010-012-014-032>034-037-058>063-031400-
...CENTRAL COLORADO...

CITY           SKY/WX    TMP DP  RH WIND       PRES   REMARKS
ASPEN          LGT RAIN  56  48  74 S7        30.33R
BUENA VISTA    PTSUNNY   52  48  86 CALM      30.38R
COPPER MTN     CLOUDY    52  39  62 W14       30.63R
BERTHOUD PASS  FAIR      43  32  65 NW17G25   30.66S
COTTONWOOD PAS NOT AVBL
GUNNISON       MOSUNNY   48  43  81 CALM      30.39R
KREMMLING      SUNNY     54  45  71 CALM      30.34S
LEADVILLE      CLOUDY    46  45  96 E3        30.48S
MONARCH PASS   PTSUNNY   45  39  81 SW9       30.72S
SALIDA           N/A     54  50  87 NW3       30.43
SUNLIGHT       CLOUDY    55  43  62 E3        30.56R
WILKERSON PASS CLOUDY    46  41  81 W9        30.59S
$$

COZ069>075-031400-
...SAN LUIS VALLEY/SANGRE DE CRISTO MOUNTAINS...

CITY           SKY/WX    TMP DP  RH WIND       PRES   REMARKS
ALAMOSA        MOSUNNY   51  50  96 CALM      30.35R
LA VETA PASS   MOSUNNY   46  43  87 MISG      30.47F
SAGUACHE       PTSUNNY   52  48  87 NW7       30.38R
$$

COZ035-036-038>040-031400-
...NORTHERN COLORADO FRONT RANGE...

CITY           SKY/WX    TMP DP  RH WIND       PRES   REMARKS
DENVER INTL AP MOSUNNY   59  56  89 SE8       30.21R
DMNS CITY PARK   N/A     64  58  82 NW5G12    30.21S
AURORA         MOSUNNY   58  56  91 E6        30.23R
FRONT RANGE AP MOSUNNY   61  57  88 SE9       30.22S
ERIE MUNI ARPT FOG       60  59  98 N3        30.22R VSB 1
BOULDER MUN AP MOSUNNY   59  57  94 N3        30.22R
CENTENNIAL     MOSUNNY   61  55  81 CALM      30.23R
BROOMFIELD     CLOUDY    59  57  94 NW7       30.24R FOG
FORT COLLINS   SUNNY     61  57  88 SW3       30.23R
LONGMONT       CLOUDY    62  60  91 NW6       30.24R FOG
$$

COZ041-046-047-076>085-087-088-031400-
...PIKES PEAK/PALMER DIVIDE AND SOUTHERN FOOTHILLS...

CITY           SKY/WX    TMP DP  RH WIND       PRES   REMARKS
COLO. SPRINGS  MOSUNNY   60  53  77 E9        30.26R
A. F. ACADEMY  MOSUNNY   56  52  88 NW5       30.27R
ELLICOTT       MOSUNNY  N/A N/A N/A E6        30.24R
FALCON         MOSUNNY   59  52  75 CALM      30.31R
FORT CARSON    MOSUNNY   58  55  92 N5        30.22R
LIMON          MOSUNNY   59  54  83 S3        30.21S
MONUMENT HILL  NOT AVBL
TRINIDAD       MOSUNNY   63  55  75 SW10      30.22S
$$

COZ042>045-048>051-090-091-031400-
...NORTHEAST COLORADO...

CITY           SKY/WX    TMP DP  RH WIND       PRES   REMARKS
GREELEY ARPT   CLOUDY    61  57  88 CALM      30.20R
AKRON          MOSUNNY   63  59  87 CALM      30.16R
BURLINGTON     PTSUNNY   64  59  83 SW6       30.12F
WRAY           SUNNY     65  58  77 SW3       30.12S
STERLING       MOSUNNY   63  59  88 N5          N/A
HOLYOKE        SUNNY     64  59  82 W3        30.13S
FORT MORGAN    MOSUNNY   62  58  87 SW7       30.17S
$$

COZ086-089-092>099-031400-
...SOUTHEAST COLORADO...

CITY           SKY/WX    TMP DP  RH WIND       PRES   REMARKS
PUEBLO         SUNNY     64  55  72 E6        30.17R
LA JUNTA       MOSUNNY   67  57  70 NW3       30.15R
LAMAR          SUNNY     64  61  90 W6        30.11R
SPRINGFIELD      N/A     65  62  90 W3        30.14R
$$


USA.gov is the U.S. government's official web portal to all federal, state and local government web resources and services.